SL-14 DEB, 45281

Orbit data source: Space-Track

SL-14 DEB, 45281 is space debris in LEO originally from a launch on Thu, 15 Aug 1991 UTC launched from the Plesetsk Missile And Space Complex (PKMTR). Debris objects in space refer to the collection of defunct objects orbiting the Earth. Examples of debris include non-operational satellites, rocket bodies, and fragments generated from explosions, collisions, or faulty payload assembly.

Loading next visibility...
Identifier
45281, 1991-056T
Orbit
LEO
Country
Flag of CISCIS
Related business
Manufacturer
Unknown
Mission
Spacecraft
Bus & Motor
Unknown
Mass
Unknown
Launch date (UTC)
1991-08-15 (34 years ago)
Launch vehicle
Unknown
Launch site
Plesetsk Missile And Space Complex (PKMTR)
Object type
Payload
Rocket body
Debris
Shape & HBR
Unknown shape, 0.1 m
Radar Cross Section
Small (<0.1 m²)

Expand to show TLE details & history
Last TLE update: 14 hours ago

TLE from 14 hours ago
0 SL-14 DEB
1 45281U 91056T   25287.20359597  .00007504  00000-0  68793-2 0  9996
2 45281  82.5568 204.7977 0157735 289.9026  68.5194 13.77384850280971
Epoch: 2025-10-14T04:53Z
TLE epoch observation values (Epoch: 2025-10-14T04:53:10.691Z)
Latitude
-0.00007°
Longitude
108.50776°
Altitude
935.199 km
Speed
7.405 km/s
True Right ascension
13h 39m 11s
True Declination
0° 00' 00"
Sunlit
Object was in daylight at epoch
Visualization orbit readout
Latitude
Unknown
Longitude
Unknown
Altitude
Unknown
Speed
Unknown
Apparent Right ascension
Unknown
Apparent Declination
Unknown
Sunlit
N/A
Visualization observer readout
Local Sidereal Time
13:50:14
Azimuth
Unknown
Elevation
Unknown
Doppler factor
Unknown
Orbital elements
Apogee altitude
1,086.248 km
Perigee altitude
854.425 km
Semi-major axis
7,348.474 km
Eccentricity
0.01577
Inclination
82.5568°
RAAN
204.7977°
Arg. of periapsis
289.9026°
True anomaly
70.21334°
Mean anomaly
68.5194°
Eccentric anomaly
69.36518°
Mean motion
3.44546 °/min
Orbital period
104.49 mins
BSTAR
0.0068793
Loading maneuver chart data...
Computing Atmospheric mass density...
Loading historical data...
Loading historical data...
Loading historical data...
Loading historical data...
Loading historical data...
Loading historical data...
Loading historical data...

Documentation

Showing up to 5 results
|